Flag for Angola Weather past 2 weeks in Luanda, Angola

Now
72 °F

Passing clouds.


Feels Like: 69 °F
Forecast: 71 / 80 °F
Wind: 3 mph from North

Location: Luanda Airport

Current Time: May 30, 2015 at 1:29:00 AM

Latest Report: May 30, 2015 at 1:00 AM


Visibility: N/A

Pressure: 29.92 "Hg

Humidity: 88%

Dew point: 68 °F

Location of LuandaLocation

Historic Weather in Luanda — Graph

°F

Luanda temperature yesterday

Maximum temperature yesterday: 81 °F (at 10:00 AM)
Minimum temperature yesterday: 72 °F (at 6:00 AM)
Average temperature yesterday: 76 °F

Past Weeks' High & Low Weather Summary

 TemperatureHumidityPressure
High90 °F (May 20, 2:00 PM)94% (May 16, 5:00 AM)30.15 "Hg (May 16, 5:00 AM)
Low61 °F (May 26, 6:00 AM)52% (May 27, 12:00 PM)29.77 "Hg (May 15, 4:00 PM)
Average80 °F76%29.90 "Hg
* Reported Midnight between May 14 and May 15 — Midnight between May 29 and May 30, Luanda, Weather by CustomWeather, © 2015

Note: Actual official high and low records may vary slightly from our data, if they occured in-between our weather recording intervals... More about our weather records

Advertising

Luanda weather history for previous 24 hours

 ConditionsComfort  
Time TempWeatherWind HumidityBarometerVisibility
12:00 AM
Sat, May 30
72 °FClear.5 mph88%29.92 "Hg10 mi
11:00 PM
Fri, May 29
72 °FClear.5 mph88%29.92 "Hg10 mi
10:00 PM73 °FClear.7 mph83%29.89 "Hg10 mi
9:00 PM73 °FClear.8 mph83%29.89 "Hg10 mi
8:00 PM73 °FClear.7 mph83%29.86 "Hg10 mi
7:00 PM75 °FClear.7 mph78%29.83 "Hg10 mi
6:00 PM75 °FClear.9 mph78%29.83 "Hg10 mi
5:00 PM77 °FSunny.9 mph69%29.83 "Hg10 mi
4:00 PM79 °FSunny.8 mph61%29.83 "Hg10 mi
3:00 PM81 °FSunny.9 mph62%29.83 "Hg10 mi
2:00 PM77 °FPassing clouds.9 mph74%29.86 "HgN/A
1:00 PM81 °FSunny.9 mph66%29.89 "Hg10 mi
12:00 PM81 °FPassing clouds.8 mph66%29.89 "HgN/A
11:00 AM81 °FPassing clouds.5 mph66%29.95 "HgN/A
10:00 AM81 °FScattered clouds.3 mph62%29.95 "HgN/A
9:00 AM77 °FPartly sunny.3 mph69%29.95 "HgN/A
8:00 AM75 °FPartly sunny.3 mph78%29.92 "Hg5 mi
7:00 AM72 °FFog.2 mph83%29.92 "Hg3 mi
6:00 AM72 °FPartly cloudy.3 mph83%29.89 "Hg4 mi
5:00 AM73 °FPassing clouds.3 mph78%29.89 "HgN/A
4:00 AM73 °FPassing clouds.3 mph78%29.89 "HgN/A
3:00 AM75 °FPassing clouds.3 mph78%29.89 "HgN/A
2:00 AM73 °FMild.5 mph83%29.89 "HgN/A
1:00 AM73 °FPassing clouds.5 mph83%29.92 "HgN/A
Weather by CustomWeather, © 2015

See weather overviewHow to use our weather pages